TimeCDT,TemperatureF,Dew PointF,Humidity,Sea Level PressureIn,VisibilityMPH,Wind Direction,Wind SpeedMPH,Gust SpeedMPH,PrecipitationIn,Events,Conditions,WindDirDegrees,DateUTC
12:14 AM,71.6,59.0,64,29.88,10.0,SE,10.4,-,N/A,,Clear,130,2013-09-27 05:14:00
12:35 AM,69.8,59.0,68,29.88,10.0,SE,10.4,-,N/A,,Clear,130,2013-09-27 05:35:00
12:55 AM,69.8,59.0,68,29.87,10.0,SE,11.5,-,N/A,,Clear,130,2013-09-27 05:55:00
1:15 AM,69.8,59.0,68,29.87,10.0,SE,11.5,-,N/A,,Clear,140,2013-09-27 06:15:00
1:35 AM,68.0,59.0,73,29.88,10.0,SE,9.2,-,N/A,,Clear,140,2013-09-27 06:35:00
1:55 AM,69.8,60.8,73,29.88,10.0,SE,9.2,-,N/A,,Clear,140,2013-09-27 06:55:00
2:14 AM,69.8,60.8,73,29.88,10.0,SE,11.5,-,N/A,,Clear,140,2013-09-27 07:14:00
2:35 AM,69.8,60.8,73,29.87,10.0,SE,11.5,-,N/A,,Clear,140,2013-09-27 07:35:00
2:55 AM,69.8,60.8,73,29.87,10.0,SE,10.4,18.4,N/A,,Clear,140,2013-09-27 07:55:00
3:14 AM,69.8,60.8,73,29.87,10.0,SE,10.4,-,N/A,,Clear,140,2013-09-27 08:14:00
3:35 AM,69.8,60.8,73,29.86,10.0,SE,12.7,-,N/A,,Clear,140,2013-09-27 08:35:00
3:55 AM,69.8,60.8,73,29.86,10.0,SE,13.8,19.6,N/A,,Clear,140,2013-09-27 08:55:00
4:14 AM,69.8,60.8,73,29.85,10.0,SE,13.8,18.4,N/A,,Clear,140,2013-09-27 09:14:00
4:35 AM,69.8,60.8,73,29.85,10.0,SE,13.8,19.6,N/A,,Clear,140,2013-09-27 09:35:00
4:55 AM,69.8,60.8,73,29.85,10.0,SE,12.7,18.4,N/A,,Clear,140,2013-09-27 09:55:00
5:15 AM,69.8,60.8,73,29.86,10.0,SSE,13.8,20.7,N/A,,Clear,150,2013-09-27 10:15:00
5:34 AM,69.8,60.8,73,29.86,10.0,SE,12.7,18.4,N/A,,Clear,140,2013-09-27 10:34:00
5:55 AM,69.8,60.8,73,29.85,10.0,SE,11.5,17.3,N/A,,Clear,140,2013-09-27 10:55:00
6:15 AM,69.8,60.8,73,29.86,10.0,SSE,15.0,19.6,N/A,,Clear,150,2013-09-27 11:15:00
6:34 AM,69.8,60.8,73,29.86,10.0,SSE,12.7,18.4,N/A,,Clear,150,2013-09-27 11:34:00
6:55 AM,69.8,60.8,73,29.86,10.0,SSE,12.7,18.4,N/A,,Clear,150,2013-09-27 11:55:00
7:15 AM,71.6,60.8,69,29.86,10.0,SE,15.0,21.9,N/A,,Clear,140,2013-09-27 12:15:00
7:35 AM,69.8,60.8,73,29.87,10.0,SSE,16.1,20.7,N/A,,Clear,150,2013-09-27 12:35:00
7:55 AM,69.8,60.8,73,29.87,10.0,SSE,11.5,18.4,N/A,Rain,Light Rain,150,2013-09-27 12:55:00
8:14 AM,68.0,62.6,83,29.86,10.0,SSE,11.5,18.4,0.02,Rain,Light Rain,150,2013-09-27 13:14:00
8:35 AM,68.0,62.6,83,29.87,10.0,SE,9.2,-,0.02,Rain,Light Rain,140,2013-09-27 13:35:00
8:55 AM,68.0,62.6,83,29.85,10.0,SE,13.8,20.7,0.02,,Light Drizzle,130,2013-09-27 13:55:00
9:14 AM,69.8,62.6,78,29.88,10.0,SSE,10.4,-,N/A,Rain,Light Rain,150,2013-09-27 14:14:00
9:35 AM,69.8,62.6,78,29.86,10.0,SE,6.9,-,N/A,Rain,Light Rain,130,2013-09-27 14:35:00
9:55 AM,69.8,62.6,78,29.89,10.0,SSE,6.9,-,N/A,,Scattered Clouds,150,2013-09-27 14:55:00
10:15 AM,69.8,62.6,78,29.87,10.0,SE,8.1,-,N/A,,Scattered Clouds,130,2013-09-27 15:15:00
10:34 AM,71.6,62.6,73,29.87,10.0,SE,10.4,18.4,N/A,Rain,Light Rain,140,2013-09-27 15:34:00
10:55 AM,71.6,62.6,73,29.86,10.0,SSE,10.4,-,N/A,,Scattered Clouds,150,2013-09-27 15:55:00
11:15 AM,71.6,60.8,69,29.84,10.0,SE,12.7,20.7,N/A,,Scattered Clouds,130,2013-09-27 16:15:00
11:35 AM,71.6,62.6,73,29.83,10.0,SE,15.0,21.9,N/A,Rain,Light Rain,140,2013-09-27 16:35:00
11:55 AM,73.4,60.8,65,29.82,10.0,SE,13.8,18.4,N/A,,Clear,140,2013-09-27 16:55:00
12:15 PM,75.2,62.6,65,29.85,10.0,SSE,15.0,23.0,N/A,,Clear,160,2013-09-27 17:15:00
12:35 PM,78.8,60.8,54,29.83,10.0,SSE,17.3,31.1,N/A,,Clear,160,2013-09-27 17:35:00
12:54 PM,80.6,60.8,51,29.82,10.0,SSE,21.9,31.1,N/A,,Clear,150,2013-09-27 17:54:00
1:13 PM,82.4,59.0,45,29.80,10.0,SE,24.2,29.9,N/A,,Clear,140,2013-09-27 18:13:00
1:21 PM,82.4,59.0,45,29.80,10.0,SE,20.7,29.9,N/A,,Clear,140,2013-09-27 18:21:00
1:41 PM,84.2,57.2,40,29.79,10.0,SE,23.0,32.2,N/A,,Clear,140,2013-09-27 18:41:00
2:01 PM,86.0,57.2,37,29.78,10.0,SSE,25.3,33.4,N/A,,Clear,150,2013-09-27 19:01:00
2:21 PM,87.8,55.4,33,29.78,10.0,SSE,21.9,32.2,N/A,,Clear,150,2013-09-27 19:21:00
3:01 PM,89.6,53.6,29,29.78,10.0,SSE,26.5,34.5,N/A,,Clear,160,2013-09-27 20:01:00
3:10 PM,87.8,53.6,31,29.78,10.0,South,20.7,35.7,N/A,,Clear,170,2013-09-27 20:10:00
3:25 PM,86.0,53.6,33,29.78,10.0,SSE,21.9,34.5,N/A,,Clear,160,2013-09-27 20:25:00
3:41 PM,84.2,53.6,35,29.78,10.0,SSE,25.3,34.5,N/A,,Clear,160,2013-09-27 20:41:00
4:01 PM,84.2,55.4,37,29.79,10.0,SSE,15.0,26.5,N/A,,Clear,160,2013-09-27 21:01:00
4:21 PM,84.2,55.4,37,29.80,10.0,SSE,18.4,29.9,N/A,,Clear,160,2013-09-27 21:21:00
5:01 PM,84.2,55.4,37,29.79,10.0,SSE,25.3,29.9,N/A,,Clear,160,2013-09-27 22:01:00
5:21 PM,84.2,57.2,40,29.80,10.0,SSE,15.0,21.9,N/A,,Clear,150,2013-09-27 22:21:00
5:29 PM,84.2,55.4,37,29.80,10.0,SSE,20.7,26.5,N/A,,Clear,150,2013-09-27 22:29:00
5:35 PM,84.2,55.4,37,29.80,10.0,SSE,17.3,26.5,N/A,,Clear,150,2013-09-27 22:35:00
5:55 PM,84.2,55.4,37,29.80,10.0,SSE,16.1,26.5,N/A,,Clear,150,2013-09-27 22:55:00
6:15 PM,84.2,57.2,40,29.80,10.0,SSE,16.1,26.5,N/A,,Clear,150,2013-09-27 23:15:00
6:34 PM,82.4,57.2,42,29.81,10.0,SSE,9.2,-,N/A,,Clear,150,2013-09-27 23:34:00
6:55 PM,82.4,57.2,42,29.81,10.0,SSE,11.5,18.4,N/A,,Clear,150,2013-09-27 23:55:00
7:15 PM,80.6,57.2,45,29.80,10.0,SE,13.8,19.6,N/A,,Clear,140,2013-09-28 00:15:00
7:35 PM,80.6,59.0,48,29.80,10.0,SE,13.8,17.3,N/A,,Clear,140,2013-09-28 00:35:00
7:55 PM,80.6,57.2,45,29.80,10.0,SE,11.5,16.1,N/A,,Clear,140,2013-09-28 00:55:00
8:15 PM,78.8,57.2,47,29.80,10.0,SE,9.2,-,N/A,,Clear,130,2013-09-28 01:15:00
8:35 PM,78.8,57.2,47,29.80,10.0,SE,11.5,-,N/A,,Clear,140,2013-09-28 01:35:00
8:55 PM,77.0,57.2,50,29.82,10.0,SE,12.7,-,N/A,,Clear,140,2013-09-28 01:55:00
9:14 PM,77.0,57.2,50,29.82,10.0,SE,15.0,19.6,N/A,,Clear,140,2013-09-28 02:14:00
9:35 PM,77.0,57.2,50,29.82,10.0,SSE,13.8,20.7,N/A,,Clear,150,2013-09-28 02:35:00
9:55 PM,75.2,57.2,53,29.82,10.0,SE,15.0,20.7,N/A,,Clear,140,2013-09-28 02:55:00
10:14 PM,75.2,57.2,53,29.82,10.0,SE,11.5,16.1,N/A,,Clear,140,2013-09-28 03:14:00
10:35 PM,75.2,57.2,53,29.81,10.0,SE,11.5,-,N/A,,Clear,140,2013-09-28 03:35:00
10:55 PM,73.4,59.0,61,29.81,10.0,SE,12.7,20.7,N/A,,Clear,140,2013-09-28 03:55:00
11:15 PM,73.4,59.0,61,29.80,10.0,SE,15.0,20.7,N/A,,Clear,140,2013-09-28 04:15:00
11:35 PM,73.4,59.0,61,29.79,10.0,SE,12.7,20.7,N/A,,Clear,130,2013-09-28 04:35:00
11:55 PM,73.4,60.8,65,29.78,10.0,SE,15.0,21.9,N/A,,Clear,140,2013-09-28 04:55:00